Location: Pian di Sc�
(43.6333°N, 11.5500°E)
Time: 16:30:23
(UTC+00:00)

Cosmos 1805 - Pass Details

Date: 07 August 2020
Orbit: 526 x 530 km, 82.5° (Epoch: 17 September)

Event Time Altitude Azimuth Distance (km) Brightness Sun altitude
Exits shadow 01:23:44 59° 334° (NNW) 613 3.6 -23.7°
Drops below altitude 10° 01:27:03 10° 4° (N) 1,779 6.7 -23.3°
Sets 01:29:13 0° 7° (N) 2,672 7.9 -23.1°
